Satellite: AAUSAT2
Catalog number: 32788
Epoch time:      12299.86255009
Element set:     437
Inclination:      097.7863 deg
RA of node:       358.6962 deg
Eccentricity:    0.0013895
Arg of perigee:   000.4477 deg
Mean anomaly:     359.6723 deg
Mean motion:   14.84914262 rev/day
Decay rate:      4.226e-05 rev/day^2
Epoch rev:           24322
Checksum:              340

Satellite: DO-64
Catalog number: 32789
Epoch time:      12298.82219675
Element set:    0456
Inclination:      097.7997 deg
RA of node:       000.2325 deg
Eccentricity:    0.0014181
Arg of perigee:   356.7258 deg
Mean anomaly:     003.3853 deg
Mean motion:   14.86776910 rev/day
Decay rate:      7.073e-05 rev/day^2
Epoch rev:           24313
Checksum:              337

Satellite: CO-66
Catalog number: 32791
Epoch time:      12299.76546197
Element set:     435
Inclination:      097.7850 deg
RA of node:       357.7707 deg
Eccentricity:    0.0015120
Arg of perigee:   359.3202 deg
Mean anomaly:     000.7943 deg
Mean motion:   14.83861170 rev/day
Decay rate:      2.732e-05 rev/day^2
Epoch rev:           24310
Checksum:              314

Satellite: RS-30
Catalog number: 32953
Epoch time:      12299.76097043
Element set:     264
Inclination:      082.5045 deg
RA of node:       213.9362 deg
Eccentricity:    0.0020040
Arg of perigee:   025.7032 deg
Mean anomaly:     334.5047 deg
Mean motion:   12.43028919 rev/day
Decay rate:        1.0e-07 rev/day^2
Epoch rev:           20078
Checksum:              265

Satellite: PHARMSAT
Catalog number: 35002
Epoch time:      12226.86484473
Element set:      78
Inclination:      040.4341 deg
RA of node:       050.6671 deg
Eccentricity:    0.0012079
Arg of perigee:   300.9773 deg
Mean anomaly:     059.0492 deg
Mean motion:   16.39309245 rev/day
Decay rate:   7.728342e-02 rev/day^2
Epoch rev:           18355
Checksum:              302

Satellite: METEOR-M
Catalog number: 35865
Epoch time:      12299.75559991
Element set:     902
Inclination:      098.6383 deg
RA of node:       351.5241 deg
Eccentricity:    0.0003298
Arg of perigee:   043.5461 deg
Mean anomaly:     316.5975 deg
Mean motion:   14.21872540 rev/day
Decay rate:        1.2e-07 rev/day^2
Epoch rev:           16115
Checksum:              312

Satellite: RS-38
Catalog number: 35869
Epoch time:      12299.75697313
Element set:     885
Inclination:      098.6337 deg
RA of node:       351.4982 deg
Eccentricity:    0.0005421
Arg of perigee:   041.5648 deg
Mean anomaly:     318.5938 deg
Mean motion:   14.22094669 rev/day
Decay rate:        7.9e-07 rev/day^2
Epoch rev:           16117
Checksum:              358

Satellite: JUGNU
Catalog number: 37839
Epoch time:      12298.34604136
Element set:    0255
Inclination:      019.9590 deg
RA of node:       295.7508 deg
Eccentricity:    0.0018994
Arg of perigee:   204.5637 deg
Mean anomaly:     155.3863 deg
Mean motion:   14.12094638 rev/day
Decay rate:       6.20e-06 rev/day^2
Epoch rev:           05352
Checksum:              319

Satellite: SRMSAT
Catalog number: 37841
Epoch time:      12298.36427003
Element set:    0257
Inclination:      019.9686 deg
RA of node:       303.0543 deg
Eccentricity:    0.0012252
Arg of perigee:   170.0246 deg
Mean anomaly:     190.0410 deg
Mean motion:   14.10172603 rev/day
Decay rate:       2.64e-06 rev/day^2
Epoch rev:           05345
Checksum:              251

Satellite: RAX-2
Catalog number: 37853
Epoch time:      12298.94046824
Element set:    0334
Inclination:      101.7039 deg
RA of node:       038.2514 deg
Eccentricity:    0.0243173
Arg of perigee:   340.6149 deg
Mean anomaly:     018.5900 deg
Mean motion:   14.81163021 rev/day
Decay rate:      5.135e-05 rev/day^2
Epoch rev:           05360
Checksum:              275

Satellite: AUBIESAT
Catalog number: 37854
Epoch time:      12299.87073008
Element set:     322
Inclination:      101.7062 deg
RA of node:       040.0413 deg
Eccentricity:    0.0242994
Arg of perigee:   337.1178 deg
Mean anomaly:     021.9323 deg
Mean motion:   14.81661249 rev/day
Decay rate:      6.031e-05 rev/day^2
Epoch rev:            5373
Checksum:              277

Satellite: HRBE
Catalog number: 37855
Epoch time:      12299.89941486
Element set:     318
Inclination:      101.7075 deg
RA of node:       039.9889 deg
Eccentricity:    0.0244223
Arg of perigee:   337.2152 deg
Mean anomaly:     021.8353 deg
Mean motion:   14.81454858 rev/day
Decay rate:      5.642e-05 rev/day^2
Epoch rev:            5373
Checksum:              332

Satellite: RS-39
Catalog number: 38051
Epoch time:      12299.88598756
Element set:     828
Inclination:      051.6370 deg
RA of node:       256.0270 deg
Eccentricity:    0.0013756
Arg of perigee:   140.3683 deg
Mean anomaly:     263.1372 deg
Mean motion:   15.26810022 rev/day
Decay rate:     2.0398e-04 rev/day^2
Epoch rev:            4192
Checksum:              314

Satellite: E-STAR
Catalog number: 38079
Epoch time:      12299.62917361
Element set:     596
Inclination:      069.4828 deg
RA of node:       015.6097 deg
Eccentricity:    0.0697809
Arg of perigee:   082.0239 deg
Mean anomaly:     285.9446 deg
Mean motion:   14.24884213 rev/day
Decay rate:     4.3967e-04 rev/day^2
Epoch rev:            3609
Checksum:              363

Satellite: GOLIAT
Catalog number: 38085
Epoch time:      12299.64953393
Element set:     562
Inclination:      069.4832 deg
RA of node:       016.3335 deg
Eccentricity:    0.0704347
Arg of perigee:   082.4519 deg
Mean anomaly:     285.5947 deg
Mean motion:   14.23644034 rev/day
Decay rate:     4.3361e-04 rev/day^2
Epoch rev:            3607
Checksum:              320

Satellite: HORYU-2
Catalog number: 38340
Epoch time:      12299.77878823
Element set:     208
Inclination:      098.1866 deg
RA of node:       239.8910 deg
Eccentricity:    0.0011802
Arg of perigee:   279.2484 deg
Mean anomaly:     080.7387 deg
Mean motion:   14.70321274 rev/day
Decay rate:      2.623e-05 rev/day^2
Epoch rev:            2366
Checksum:              324

Satellite: RS-40
Catalog number: 38736
Epoch time:      12299.57642088
Element set:      89
Inclination:      082.4755 deg
RA of node:       301.4110 deg
Eccentricity:    0.0019881
Arg of perigee:   117.5622 deg
Mean anomaly:     242.7483 deg
Mean motion:   12.42647005 rev/day
Decay rate:        1.0e-07 rev/day^2
Epoch rev:            1110
Checksum:              279

Satellite: PROITERES
Catalog number: 38756
Epoch time:      12299.72731812
Element set:     167
Inclination:      098.2804 deg
RA of node:       006.1931 deg
Eccentricity:    0.0013542
Arg of perigee:   129.1357 deg
Mean anomaly:     231.1052 deg
Mean motion:   14.73937216 rev/day
Decay rate:      1.064e-05 rev/day^2
Epoch rev:             685
Checksum:              286

Satellite: AENEAS
Catalog number: 38760
Epoch time:      12298.31629831
Element set:    0047
Inclination:      064.6718 deg
RA of node:       276.8338 deg
Eccentricity:    0.0218398
Arg of perigee:   278.1463 deg
Mean anomaly:     079.4936 deg
Mean motion:   14.79328824 rev/day
Decay rate:     1.0038e-04 rev/day^2
Epoch rev:           00596
Checksum:              346

Satellite: CSSWE-D
Catalog number: 38761
Epoch time:      12298.31357253
Element set:    0042
Inclination:      064.6726 deg
RA of node:       276.8243 deg
Eccentricity:    0.0219448
Arg of perigee:   278.1604 deg
Mean anomaly:     079.4686 deg
Mean motion:   14.79327712 rev/day
Decay rate:      6.476e-05 rev/day^2
Epoch rev:           00596
Checksum:              336

Satellite: CXBN-E
Catalog number: 38762
Epoch time:      12298.44743389
Element set:    0042
Inclination:      064.6738 deg
RA of node:       276.4052 deg
Eccentricity:    0.0219308
Arg of perigee:   277.9029 deg
Mean anomaly:     079.7277 deg
Mean motion:   14.79404992 rev/day
Decay rate:      7.454e-05 rev/day^2
Epoch rev:           00598
Checksum:              354

Satellite: OBJECT F
Catalog number: 38763
Epoch time:      12298.44715918
Element set:    0040
Inclination:      064.6724 deg
RA of node:       276.4017 deg
Eccentricity:    0.0219671
Arg of perigee:   278.1644 deg
Mean anomaly:     079.4619 deg
Mean motion:   14.79379828 rev/day
Decay rate:      6.264e-05 rev/day^2
Epoch rev:           00582
Checksum:              341

Satellite: CINEMA-G
Catalog number: 38764
Epoch time:      12298.44683446
Element set:    0040
Inclination:      064.6723 deg
RA of node:       276.3967 deg
Eccentricity:    0.0219406
Arg of perigee:   278.2084 deg
Mean anomaly:     079.4214 deg
Mean motion:   14.79401011 rev/day
Decay rate:      6.525e-05 rev/day^2
Epoch rev:           00598
Checksum:              318

Satellite: CP5
Catalog number: 38765
Epoch time:      12298.47334000
Element set:    0041
Inclination:      064.6726 deg
RA of node:       276.3011 deg
Eccentricity:    0.0218766
Arg of perigee:   277.9598 deg
Mean anomaly:     226.6709 deg
Mean motion:   14.79487188 rev/day
Decay rate:      8.350e-05 rev/day^2
Epoch rev:           00598
Checksum:              345

Satellite: RAIKO
Catalog number: 38852
Epoch time:      12299.87907583
Element set:      19
Inclination:      051.6464 deg
RA of node:       191.9836 deg
Eccentricity:    0.0018826
Arg of perigee:   198.0064 deg
Mean anomaly:     162.0258 deg
Mean motion:   15.52789701 rev/day
Decay rate:     4.7878e-04 rev/day^2
Epoch rev:             323
Checksum:              340

Satellite: FITSAT 1
Catalog number: 38853
Epoch time:      12299.87727956
Element set:      21
Inclination:      051.6485 deg
RA of node:       191.9704 deg
Eccentricity:    0.0014645
Arg of perigee:   207.0984 deg
Mean anomaly:     152.9262 deg
Mean motion:   15.53088154 rev/day
Decay rate:     5.7221e-04 rev/day^2
Epoch rev:             328
Checksum:              319

